Weather History for KMDZ - August, 2014

Change the Weather History Date:

Thursday, August 28, 2014

  Actual Average Record
Temperature  
Mean Temperature 57 °F -  
Max Temperature 68 °F 76 °F 92 °F (1973)
Min Temperature 46 °F 53 °F 33 °F (1986)
Degree Days  
Heating Degree Days 8    
Growing Degree Days 7 (Base 50)    
Moisture  
Dew Point 55 °F    
Average Humidity 88    
Maximum Humidity 97    
Minimum Humidity 66    
Precipitation  
Precipitation 0.06 in - - ()
Sea Level Pressure  
Sea Level Pressure 30.11 in    
Wind  
Wind Speed 4 mph (ESE)    
Max Wind Speed 12 mph    
Max Gust Speed 16 mph    
Visibility 10 miles    
Events Rain    
Averages and records for this station are not official NWS values.
T = Trace of Precipitation, MM = Missing Value Source: NWS Daily Summary

Daily Weather History Graph

Daily Weather History Graph

Search for Another Location

Airport or City:

Trip Planner

Search our weather history database for the weather conditions in past years. The results will help you decide how hot, cold, wet, or windy it might be!

Date:

Astronomy

Aug. 28, 2014 Rise Set
Actual Time 6:18 AM CDT 7:45 PM CDT
Civil Twilight 5:47 AM CDT 8:16 PM CDT
Nautical Twilight 5:10 AM CDT 8:53 PM CDT
Astronomical Twilight 4:30 AM CDT 9:32 PM CDT
Moon 9:20 AM CDT (8/28) 8:58 PM CDT (8/28)
Length of Visible Light 14h 28m
Length of Day
13h 27m
Waxing Crescent, 9% of the Moon is Illuminated
Aug 28
Waxing Crescent
Sep 2
First Quarter
Sep 8
Full
Sep 15
Last Quarter
Sep 24
New

Hourly Weather History & Observations

Time (CDT) Temp. Windchill Dew Point Humidity Pressure Visibility Wind Dir Wind Speed Gust Speed Precip Events Conditions
12:15 AM 50.9 °F - 49.1 °F 94% 30.18 in 10.0 mi NE 3.5 mph - N/A   Clear
12:35 AM 50.4 °F - 48.9 °F 95% 30.18 in 10.0 mi NE 3.5 mph - N/A   Clear
12:55 AM 50.2 °F - 48.7 °F 95% 30.18 in 10.0 mi Calm Calm - N/A   Clear
1:15 AM 50.2 °F - 48.4 °F 94% 30.18 in 10.0 mi ENE 4.6 mph - N/A   Clear
1:35 AM 50.0 °F - 48.4 °F 94% 30.18 in 10.0 mi East 3.5 mph - N/A   Clear
1:55 AM 49.8 °F - 47.7 °F 92% 30.18 in 10.0 mi ENE 3.5 mph - N/A   Clear
2:15 AM 48.9 °F - 47.5 °F 95% 30.17 in 10.0 mi ENE 3.5 mph - N/A   Clear
2:35 AM 49.1 °F - 47.5 °F 94% 30.17 in 10.0 mi Calm Calm - N/A   Clear
2:55 AM 49.5 °F - 47.3 °F 92% 30.17 in 10.0 mi ENE 3.5 mph - N/A   Clear
3:15 AM 48.4 °F - 47.1 °F 95% 30.17 in 10.0 mi East 4.6 mph - N/A   Clear
3:35 AM 48.7 °F - 47.1 °F 94% 30.17 in 10.0 mi ENE 4.6 mph - N/A   Clear
3:55 AM 48.2 °F - 46.8 °F 95% 30.17 in 10.0 mi Calm Calm - N/A   Clear
4:15 AM 48.0 °F - 46.8 °F 95% 30.17 in 10.0 mi ENE 3.5 mph - N/A   Clear
4:35 AM 46.9 °F - 45.9 °F 96% 30.16 in 10.0 mi ENE 4.6 mph - N/A   Clear
4:55 AM 47.3 °F - 46.4 °F 97% 30.16 in 10.0 mi East 4.6 mph - N/A   Clear
5:15 AM 46.8 °F - 45.9 °F 97% 30.15 in 10.0 mi East 4.6 mph - N/A   Clear
5:35 AM 47.3 °F - 46.4 °F 97% 30.16 in 10.0 mi ENE 3.5 mph - N/A   Clear
5:55 AM 46.4 °F 44.3 °F 45.5 °F 97% 30.16 in 10.0 mi ENE 4.6 mph - N/A   Clear
6:15 AM 46.2 °F 43.3 °F 45.5 °F 97% 30.15 in 10.0 mi ENE 5.8 mph - N/A   Clear
6:35 AM 46.6 °F - 45.7 °F 97% 30.15 in 10.0 mi East 4.6 mph - N/A   Clear
6:55 AM 47.5 °F - 46.4 °F 96% 30.15 in 10.0 mi East 4.6 mph - N/A   Clear
7:15 AM 49.3 °F - 47.7 °F 94% 30.14 in 10.0 mi East 3.5 mph - N/A   Clear
7:35 AM 51.1 °F - 49.1 °F 93% 30.15 in 10.0 mi East 3.5 mph - N/A   Clear
7:55 AM 53.8 °F - 50.9 °F 90% 30.15 in 10.0 mi East 3.5 mph - N/A   Clear
8:15 AM 56.3 °F - 51.1 °F 83% 30.15 in 10.0 mi East 4.6 mph - N/A   Clear
8:35 AM 58.1 °F - 51.4 °F 78% 30.15 in 10.0 mi East 4.6 mph - N/A   Clear
8:55 AM 59.7 °F - 51.6 °F 75% 30.15 in 10.0 mi East 3.5 mph - N/A   Clear
9:15 AM 61.2 °F - 52.7 °F 74% 30.15 in 10.0 mi ESE 4.6 mph - N/A   Clear
9:55 AM 64.0 °F - 53.1 °F 67% 30.15 in 10.0 mi East 5.8 mph - N/A   Clear
10:15 AM 65.3 °F - 53.8 °F 66% 30.15 in 10.0 mi East 6.9 mph - N/A   Clear
10:35 AM 66.0 °F - 54.3 °F 66% 30.15 in 10.0 mi ESE 6.9 mph - N/A   Clear
10:55 AM 66.2 °F - 55.9 °F 69% 30.15 in 10.0 mi ESE 8.1 mph - N/A   Clear
11:15 AM 66.2 °F - 55.2 °F 68% 30.15 in 10.0 mi SE 4.6 mph - N/A   Clear
11:35 AM 65.5 °F - 55.9 °F 71% 30.15 in 10.0 mi SSE 6.9 mph - N/A   Mostly Cloudy
11:55 AM 66.0 °F - 56.8 °F 72% 30.15 in 10.0 mi SE 5.8 mph - N/A   Mostly Cloudy
12:15 PM 64.8 °F - 55.8 °F 73% 30.14 in 10.0 mi SE 5.8 mph - N/A   Mostly Cloudy
12:35 PM 66.7 °F - 57.0 °F 71% 30.14 in 10.0 mi SSE 6.9 mph - N/A   Overcast
12:55 PM 66.7 °F - 57.9 °F 73% 30.13 in 10.0 mi SE 6.9 mph - N/A   Mostly Cloudy
1:15 PM 66.6 °F - 57.9 °F 74% 30.12 in 10.0 mi SE 6.9 mph - N/A   Overcast
1:35 PM 67.1 °F - 58.8 °F 75% 30.12 in 10.0 mi SE 5.8 mph - N/A   Overcast
1:55 PM 67.3 °F - 59.9 °F 77% 30.11 in 10.0 mi SE 5.8 mph - N/A   Overcast
2:15 PM 68.0 °F - 59.5 °F 74% 30.10 in 10.0 mi South 6.9 mph - N/A   Overcast
2:35 PM 66.4 °F - 59.5 °F 79% 30.10 in 10.0 mi SE 6.9 mph - N/A   Mostly Cloudy
2:55 PM 66.2 °F - 59.4 °F 79% 30.09 in 10.0 mi SE 3.5 mph - N/A   Scattered Clouds
3:15 PM 65.8 °F - 59.7 °F 81% 30.08 in 10.0 mi SSE 8.1 mph - N/A   Mostly Cloudy
3:35 PM 65.7 °F - 59.7 °F 81% 30.08 in 10.0 mi SE 6.9 mph - N/A   Mostly Cloudy
3:55 PM 65.3 °F - 59.5 °F 82% 30.08 in 10.0 mi SE 4.6 mph - N/A   Mostly Cloudy
4:15 PM 64.4 °F - 59.9 °F 85% 30.07 in 10.0 mi ESE 3.5 mph - N/A Rain Light Rain
4:35 PM 64.2 °F - 60.3 °F 87% 30.07 in 10.0 mi Calm Calm - N/A   Light Drizzle
4:55 PM 64.4 °F - 60.6 °F 88% 30.06 in 10.0 mi East 3.5 mph - N/A   Light Drizzle
5:15 PM 64.4 °F - 61.0 °F 89% 30.05 in 10.0 mi East 4.6 mph - N/A Rain Rain
5:35 PM 64.0 °F - 61.5 °F 91% 30.05 in 7.0 mi East 4.6 mph - N/A   Drizzle
5:55 PM 64.0 °F - 61.9 °F 93% 30.05 in 7.0 mi Calm Calm - N/A Rain Rain
6:15 PM 63.7 °F - 61.7 °F 93% 30.05 in 7.0 mi ESE 4.6 mph - 0.01 in Rain Rain
6:35 PM 63.5 °F - 61.7 °F 94% 30.05 in 7.0 mi East 4.6 mph - 0.01 in   Light Drizzle
6:55 PM 63.1 °F - 61.7 °F 95% 30.05 in 7.0 mi ESE 4.6 mph - 0.01 in Rain Light Rain
7:15 PM 63.0 °F - 61.3 °F 94% 30.05 in 10.0 mi ESE 4.6 mph - N/A   Overcast
7:35 PM 62.8 °F - 61.3 °F 95% 30.05 in 7.0 mi SE 5.8 mph - N/A   Drizzle
7:55 PM 62.6 °F - 61.5 °F 96% 30.05 in 7.0 mi SE 4.6 mph - N/A   Drizzle
8:15 PM 62.4 °F - 61.3 °F 96% 30.05 in 5.0 mi SE 4.6 mph - N/A   Drizzle
8:35 PM 62.2 °F - 61.3 °F 97% 30.05 in 7.0 mi ESE 5.8 mph - N/A   Overcast
8:55 PM 62.2 °F - 61.3 °F 97% 30.05 in 10.0 mi SE 4.6 mph - N/A   Light Drizzle
9:15 PM 62.1 °F - 61.0 °F 96% 30.04 in 10.0 mi SE 6.9 mph - N/A Rain Light Rain
9:35 PM 61.9 °F - 60.8 °F 96% 30.04 in 10.0 mi SE 6.9 mph - 0.01 in Rain Rain
9:55 PM 61.7 °F - 60.4 °F 96% 30.03 in 10.0 mi SE 10.4 mph - 0.01 in Rain Light Rain
10:15 PM 61.0 °F - 59.9 °F 96% 30.03 in 10.0 mi SSE 8.1 mph - N/A Rain Light Rain
10:35 PM 60.4 °F - 59.2 °F 96% 30.03 in 10.0 mi SSE 9.2 mph - 0.01 in Rain Rain
10:55 PM 60.1 °F - 59.0 °F 96% 30.03 in 10.0 mi SSE 8.1 mph - 0.01 in   Drizzle
11:15 PM 59.5 °F - 58.1 °F 95% 30.03 in 10.0 mi SSE 9.2 mph - 0.01 in Rain Rain
11:35 PM 58.8 °F - 57.0 °F 94% 30.03 in 10.0 mi SSE 9.2 mph 16.1 mph 0.01 in Rain Light Rain
11:55 PM 58.3 °F - 56.7 °F 94% 30.03 in 7.0 mi SSE 11.5 mph 16.1 mph 0.03 in Rain Light Rain